Location: *
(48.4333°N, 5.0333°W)
Time: 14:47:07
(UTC+00:00)

Terra - Pass Details

Date: 09 April 2020
Orbit: 701 x 703 km, 98.2° (Epoch: 28 May)

Event Time Altitude Azimuth Distance (km) Brightness Sun altitude
Exits shadow 23:47:08 13° 284° (WNW) 1,971 4.3 -33.0°
Drops below altitude 10° 23:48:39 10° 303° (WNW) 2,180 4.8 -33.1°
Sets 23:52:06 0° 329° (NNW) 3,105 6.1 -33.2°
